Measurements were made at the meteorological tower in Jülich (50.90 N / 6.40 E) at an altitude of 20 m,
Responsible PI: Dr. Marc von Hobe; Forschungszentrum Jülich GmbH; IEK-7; email: m.von.hobe@fz-juelich.de,
NaN or negative numbers are fill values (i.e. no valid measurements were made at that time),
Uncertainties are given as the 1-sigma standard deviation over each 10 minute intervals. In each interval ~600 individual measurements are carried out so that the standard error of the mean is approximately sigma/sqrt(600).,
time_utc,CO2_ppm,stdev_CO2_ppm,H2O_ppm,stdev_H2O_ppm
"2014-07-01 00:05:00 000",420.131,3.07745,11246.5,131.933
"2014-07-01 00:15:00 000",421.459,4.66059,10989.8,51.6349
"2014-07-01 00:25:00 000",431.352,3.65437,10636.9,116.164
"2014-07-01 00:35:00 000",422.473,2.03197,11199.7,315.752
"2014-07-01 00:45:00 000",416.886,5.26853,11211.0,90.8845
"2014-07-01 00:55:00 000",408.823,1.58884,11017.9,50.1249
"2014-07-01 01:05:00 000",411.847,1.60350,11100.4,44.1219
"2014-07-01 01:15:00 000",412.009,0.825821,10996.3,49.0367
"2014-07-01 01:25:00 000",413.139,1.10169,10883.0,55.1035
"2014-07-01 01:35:00 000",412.477,0.663656,10758.9,114.109
"2014-07-01 01:45:00 000",411.331,0.974962,10533.7,133.888
"2014-07-01 01:55:00 000",415.197,3.23439,9941.18,191.186
"2014-07-01 02:05:00 000",422.250,1.87429,9505.10,102.263
"2014-07-01 02:15:00 000",432.599,5.44724,9563.32,89.8299
"2014-07-01 02:25:00 000",437.632,1.10758,9501.62,216.256
"2014-07-01 02:35:00 000",438.040,3.84737,9212.81,61.3765
"2014-07-01 02:45:00 000",442.346,6.38693,9377.95,42.6790
"2014-07-01 02:55:00 000",453.549,1.95288,9162.75,64.5295
"2014-07-01 03:05:00 000",459.579,1.43991,9037.88,98.1437
"2014-07-01 03:15:00 000",459.678,2.92384,8720.52,75.6287
"2014-07-01 03:25:00 000",464.326,3.40304,8912.66,125.401
"2014-07-01 03:35:00 000",458.357,8.67933,8897.22,58.8191
"2014-07-01 03:45:00 000",457.302,6.84327,8961.32,75.0557
"2014-07-01 03:55:00 000",463.453,2.61760,9031.47,149.843
"2014-07-01 04:05:00 000",462.608,2.58233,9335.44,176.743
"2014-07-01 04:15:00 000",460.552,2.33787,9865.16,113.607
"2014-07-01 04:25:00 000",462.494,1.41834,10282.7,134.189
"2014-07-01 04:35:00 000",463.620,2.54552,10761.0,91.7948
"2014-07-01 04:45:00 000",463.510,3.15636,11079.5,66.1886
"2014-07-01 04:55:00 000",452.078,1.53192,11429.8,103.921
"2014-07-01 05:05:00 000",451.682,2.39702,11668.9,63.1614
"2014-07-01 05:15:00 000",448.782,1.77947,11851.9,36.0285
"2014-07-01 05:25:00 000",443.676,2.42921,12031.2,68.4386
"2014-07-01 05:35:00 000",435.085,4.38222,12332.8,97.2845
"2014-07-01 05:45:00 000",425.536,2.64538,12566.1,64.3295
"2014-07-01 05:55:00 000",420.414,2.49164,12858.3,96.5766
"2014-07-01 06:05:00 000",415.779,3.57257,13294.3,126.322
"2014-07-01 06:15:00 000",417.357,1.88918,13787.0,206.018
"2014-07-01 06:25:00 000",415.112,2.20204,14620.0,289.026
"2014-07-01 06:35:00 000",413.138,3.64051,14948.9,162.389
"2014-07-01 06:45:00 000",408.149,3.43390,15072.7,233.354
"2014-07-01 06:55:00 000",402.247,2.22539,15441.2,213.717
"2014-07-01 07:05:00 000",397.551,1.55265,15512.8,209.386
"2014-07-01 07:15:00 000",391.502,3.61937,16157.9,114.819
"2014-07-01 07:25:00 000",387.822,0.976496,15369.5,213.372
"2014-07-01 07:35:00 000",389.324,2.09999,15061.9,775.637
"2014-07-01 07:45:00 000",389.845,1.00279,11815.4,935.534
"2014-07-01 07:55:00 000",389.761,0.714875,10746.7,164.021
"2014-07-01 08:05:00 000",389.518,0.698815,10785.1,227.802
"2014-07-01 08:15:00 000",388.673,0.862875,10880.5,249.966
"2014-07-01 08:25:00 000",387.462,0.864092,10983.4,237.120
"2014-07-01 08:35:00 000",387.738,0.950363,10417.4,434.246
"2014-07-01 08:45:00 000",386.174,0.758660,10502.9,250.815
"2014-07-01 08:55:00 000",386.043,0.749796,10436.5,309.128
"2014-07-01 09:05:00 000",386.077,0.694008,10279.6,379.756
"2014-07-01 09:15:00 000",384.746,0.810481,10506.5,307.351
"2014-07-01 09:25:00 000",384.710,0.657100,9897.31,297.200
"2014-07-01 09:35:00 000",384.820,1.06194,9994.05,368.148
"2014-07-01 09:45:00 000",384.932,0.919848,10414.8,340.169
"2014-07-01 09:55:00 000",384.867,0.721463,10123.2,439.087
"2014-07-01 10:05:00 000",384.833,0.929423,9697.67,336.881
"2014-07-01 10:15:00 000",385.291,0.841670,9525.04,266.505
"2014-07-01 10:25:00 000",385.898,3.37641,9565.71,289.216
"2014-07-01 10:35:00 000",385.915,3.59489,9657.49,260.345
"2014-07-01 10:45:00 000",384.129,1.02086,9941.23,324.110
"2014-07-01 10:55:00 000",383.522,1.04927,10294.6,333.791
"2014-07-01 11:05:00 000",383.395,0.948702,10329.3,381.108
"2014-07-01 11:15:00 000",383.229,0.854689,10254.9,390.919
"2014-07-01 11:25:00 000",383.315,0.919876,9943.87,350.240
"2014-07-01 11:35:00 000",382.441,0.833861,10292.9,286.616
"2014-07-01 11:45:00 000",382.258,1.06947,10169.9,420.004
"2014-07-01 11:55:00 000",382.792,0.870220,10106.3,302.554
"2014-07-01 12:05:00 000",382.384,1.04573,10091.3,367.561
"2014-07-01 12:15:00 000",382.018,0.876002,10294.4,335.482
"2014-07-01 12:25:00 000",382.309,0.989762,10079.9,262.483
"2014-07-01 12:35:00 000",383.148,1.06791,9845.38,379.749
"2014-07-01 12:45:00 000",382.604,0.872163,10171.9,358.055
"2014-07-01 12:55:00 000",382.322,0.966198,10269.6,268.394
"2014-07-01 13:05:00 000",382.443,0.871291,10140.2,318.412
"2014-07-01 13:15:00 000",382.400,0.975381,10070.3,256.060
"2014-07-01 13:25:00 000",381.906,0.814752,10316.4,347.311
"2014-07-01 13:35:00 000",382.508,0.927216,10239.8,455.091
"2014-07-01 13:45:00 000",382.583,0.926528,10149.3,271.617
"2014-07-01 13:55:00 000",382.860,0.668202,9932.62,352.635
"2014-07-01 14:05:00 000",382.995,0.947814,9645.75,305.382
"2014-07-01 14:15:00 000",382.479,0.854620,9995.01,296.840
"2014-07-01 14:25:00 000",381.672,0.823083,10173.1,298.622
"2014-07-01 14:35:00 000",380.908,0.846109,10348.1,329.751
"2014-07-01 14:45:00 000",381.409,0.833685,10114.2,257.708
"2014-07-01 14:55:00 000",381.648,0.878482,10009.4,337.673
"2014-07-01 15:05:00 000",381.854,0.858373,9988.03,381.509
"2014-07-01 15:15:00 000",381.589,0.779856,9969.08,273.789
"2014-07-01 15:25:00 000",381.781,0.616606,10162.1,215.982
"2014-07-01 15:35:00 000",382.171,0.913340,9912.83,295.202
"2014-07-01 15:45:00 000",382.175,0.616016,9953.95,316.600
"2014-07-01 15:55:00 000",382.624,1.08964,10165.0,481.657
"2014-07-01 16:05:00 000",382.121,0.604483,9782.93,308.178
"2014-07-01 16:15:00 000",381.899,0.629955,9736.18,273.205
"2014-07-01 16:25:00 000",381.642,0.660486,9800.33,216.043
"2014-07-01 16:35:00 000",381.470,0.707579,9766.15,233.200
"2014-07-01 16:45:00 000",382.269,0.670174,9530.52,221.911
"2014-07-01 16:55:00 000",382.231,0.805864,9634.42,255.866
"2014-07-01 17:05:00 000",382.558,0.707854,9487.32,245.774
"2014-07-01 17:15:00 000",382.317,0.516408,9546.53,162.817
"2014-07-01 17:25:00 000",382.269,0.772390,9615.64,209.520
"2014-07-01 17:35:00 000",382.663,1.92701,9939.10,417.816
"2014-07-01 17:45:00 000",382.163,1.12130,9911.23,201.271
"2014-07-01 17:55:00 000",381.595,0.499863,9964.83,116.728
"2014-07-01 18:05:00 000",381.147,0.494516,10251.9,104.130
"2014-07-01 18:15:00 000",380.768,0.775702,10292.7,147.229
"2014-07-01 18:25:00 000",380.108,1.55550,10408.1,217.984
"2014-07-01 18:35:00 000",378.809,1.24884,10675.6,193.701
"2014-07-01 18:45:00 000",380.340,1.02969,10584.2,186.275
"2014-07-01 18:55:00 000",380.518,0.677671,10965.8,108.024
"2014-07-01 19:05:00 000",380.996,1.35155,11167.5,93.5677
"2014-07-01 19:15:00 000",380.938,0.742815,11206.6,63.5261
"2014-07-01 19:25:00 000",380.939,0.551025,11285.6,110.150
"2014-07-01 19:35:00 000",383.251,1.02388,11495.7,83.9149
"2014-07-01 19:45:00 000",385.398,0.535483,11663.0,123.567
"2014-07-01 19:55:00 000",385.726,0.507743,11489.8,54.4311
"2014-07-01 20:05:00 000",386.554,0.492662,11586.9,26.0377
"2014-07-01 20:15:00 000",386.986,0.418372,11598.5,23.0587
"2014-07-01 20:25:00 000",387.143,0.398282,11621.1,27.9313
"2014-07-01 20:35:00 000",387.396,0.427143,11592.7,44.2345
"2014-07-01 20:45:00 000",387.603,0.411214,11430.9,65.5804
"2014-07-01 20:55:00 000",387.783,0.479795,11343.2,31.5018
"2014-07-01 21:05:00 000",387.657,0.550850,11270.3,34.3699
"2014-07-01 21:15:00 000",388.578,0.593160,11282.4,40.5765
"2014-07-01 21:25:00 000",389.556,0.537090,11381.5,54.6827
"2014-07-01 21:35:00 000",390.602,0.650132,11441.0,30.0381
"2014-07-01 21:45:00 000",392.668,0.777190,11478.1,30.8753
"2014-07-01 21:55:00 000",394.050,0.656837,11513.6,30.4067
"2014-07-01 22:05:00 000",394.153,0.744187,11523.9,31.7806
"2014-07-01 22:15:00 000",394.172,0.467376,11536.8,50.2435
"2014-07-01 22:25:00 000",395.963,1.73446,11639.6,98.6018
"2014-07-01 22:35:00 000",401.144,5.23205,11839.4,59.5214
"2014-07-01 22:45:00 000",400.507,4.19815,11969.7,118.510
"2014-07-01 22:55:00 000",398.598,1.33864,11963.4,53.1880
"2014-07-01 23:05:00 000",398.702,0.883873,12036.2,59.4256
"2014-07-01 23:15:00 000",399.188,0.589286,12015.4,48.6808
"2014-07-01 23:25:00 000",400.816,1.54726,11980.4,96.1553
"2014-07-01 23:35:00 000",400.535,1.24537,12014.6,142.979
"2014-07-01 23:45:00 000",402.375,2.63412,11831.0,101.830
"2014-07-01 23:55:00 000",404.761,2.75339,11676.1,100.561
"2014-07-02 00:05:00 000",401.288,1.86915,12047.5,149.803
"2014-07-02 00:15:00 000",401.790,0.797390,11804.8,106.471
"2014-07-02 00:25:00 000",400.013,1.61906,11551.1,71.7921
"2014-07-02 00:35:00 000",399.182,1.61258,11384.5,75.0261
"2014-07-02 00:45:00 000",402.289,2.07872,11465.2,103.015
"2014-07-02 00:55:00 000",401.986,5.10092,11368.9,173.213
"2014-07-02 01:05:00 000",404.433,4.28757,11344.3,177.695
"2014-07-02 01:15:00 000",408.150,8.23690,11105.1,88.7482
"2014-07-02 01:25:00 000",403.012,2.56602,11373.4,230.640
"2014-07-02 01:35:00 000",406.893,3.65627,11025.0,186.990
"2014-07-02 01:45:00 000",411.122,4.31496,11246.6,126.068
"2014-07-02 01:55:00 000",411.997,6.32189,11271.4,154.976
"2014-07-02 02:05:00 000",411.824,6.78516,11133.0,220.362
"2014-07-02 02:15:00 000",417.239,4.15763,10989.3,213.304
"2014-07-02 02:25:00 000",422.906,3.47829,10609.8,102.118
"2014-07-02 02:35:00 000",424.276,2.80667,10373.7,193.435
"2014-07-02 02:45:00 000",430.400,3.67064,10118.6,106.734
"2014-07-02 02:55:00 000",433.588,2.94336,10305.6,166.214
"2014-07-02 03:05:00 000",435.608,3.51828,10171.9,165.680
"2014-07-02 03:15:00 000",444.471,0.919859,9808.81,40.2506
"2014-07-02 03:25:00 000",447.221,0.879302,9876.20,34.2947
"2014-07-02 03:35:00 000",452.047,2.49153,9776.54,112.159
"2014-07-02 03:45:00 000",454.898,1.79426,9629.92,146.306
"2014-07-02 03:55:00 000",450.707,1.65436,9759.88,58.3964
"2014-07-02 04:05:00 000",452.535,1.70096,9841.21,92.7731
"2014-07-02 04:15:00 000",455.604,2.21999,10178.9,200.129
"2014-07-02 04:25:00 000",459.791,1.42372,10679.9,162.147
"2014-07-02 04:35:00 000",459.996,0.913709,11130.9,141.404
"2014-07-02 04:45:00 000",463.927,1.28719,11562.6,51.8600
"2014-07-02 04:55:00 000",461.511,1.87472,11707.1,52.4505
"2014-07-02 05:05:00 000",454.944,2.69900,11886.5,97.4227
"2014-07-02 05:15:00 000",447.298,5.39659,12138.4,94.6087
"2014-07-02 05:25:00 000",436.039,3.87215,12502.1,119.437
"2014-07-02 05:35:00 000",429.838,1.15526,12796.2,60.3429
"2014-07-02 05:45:00 000",427.669,2.82231,12910.6,62.9084
"2014-07-02 05:55:00 000",424.679,3.96130,13179.8,97.5667
"2014-07-02 06:05:00 000",419.061,2.29365,13488.0,140.027
"2014-07-02 06:15:00 000",413.764,4.77162,14049.7,121.278
"2014-07-02 06:25:00 000",407.710,2.51092,14383.8,114.762
"2014-07-02 06:35:00 000",407.275,1.05498,14834.4,181.363
"2014-07-02 06:45:00 000",403.329,1.26430,15624.3,166.102
"2014-07-02 06:55:00 000",401.087,1.05801,15989.4,333.210
"2014-07-02 07:05:00 000",400.369,1.30485,15560.3,99.5757
"2014-07-02 07:15:00 000",399.472,0.849794,14927.8,576.193
"2014-07-02 07:25:00 000",398.818,0.906274,13614.5,411.647
"2014-07-02 07:35:00 000",399.823,1.27984,13220.6,156.027
"2014-07-02 07:45:00 000",398.261,2.01113,13090.5,461.852
"2014-07-02 07:55:00 000",398.438,1.26041,12416.7,160.966
"2014-07-02 08:05:00 000",392.825,2.00340,12845.5,244.619
"2014-07-02 08:15:00 000",392.056,0.979047,12541.4,377.947
"2014-07-02 08:25:00 000",394.722,3.01754,11980.6,417.118
"2014-07-02 08:35:00 000",391.327,1.12087,11964.6,446.653
"2014-07-02 08:45:00 000",389.587,0.980206,12231.6,174.351
"2014-07-02 08:55:00 000",388.771,1.44987,12192.4,306.060
"2014-07-02 09:05:00 000",387.471,0.756917,11723.6,399.393
"2014-07-02 09:15:00 000",385.681,0.949394,11762.2,364.264
"2014-07-02 09:25:00 000",383.796,0.865898,11567.3,323.562
"2014-07-02 09:35:00 000",382.666,1.06304,11304.8,259.738
"2014-07-02 09:45:00 000",382.499,0.980156,11021.9,330.452
"2014-07-02 09:55:00 000",382.932,0.843345,10478.9,325.370
"2014-07-02 10:05:00 000",382.594,0.875442,10867.0,223.858
"2014-07-02 10:15:00 000",382.567,0.948831,11256.9,312.556
"2014-07-02 10:25:00 000",382.710,1.02976,11185.3,302.181
"2014-07-02 10:35:00 000",382.642,1.05626,11416.1,413.178
"2014-07-02 10:45:00 000",382.898,1.15846,11139.3,509.677
"2014-07-02 10:55:00 000",383.743,0.874208,10631.3,256.654
"2014-07-02 11:05:00 000",383.319,1.07520,10766.6,287.831
"2014-07-02 11:15:00 000",382.856,1.21625,11036.5,360.584
"2014-07-02 11:25:00 000",383.868,0.819287,10564.3,323.963
"2014-07-02 11:35:00 000",383.734,0.954201,10517.2,296.921
"2014-07-02 11:45:00 000",383.943,1.30923,10463.8,395.001
"2014-07-02 11:55:00 000",382.781,0.851263,10864.8,360.334
"2014-07-02 12:05:00 000",383.439,0.860393,10347.3,241.434
"2014-07-02 12:15:00 000",382.501,0.826818,10625.5,267.117
"2014-07-02 12:25:00 000",382.155,0.892966,10672.7,296.685
"2014-07-02 12:35:00 000",382.348,0.834494,10335.6,423.945
"2014-07-02 12:45:00 000",382.308,1.03898,9911.64,457.395
"2014-07-02 12:55:00 000",380.958,1.42098,10314.0,607.627
"2014-07-02 13:05:00 000",379.959,0.981975,10859.3,332.244
"2014-07-02 13:15:00 000",380.131,0.719703,10681.3,330.105
"2014-07-02 13:25:00 000",379.169,0.631603,10868.0,322.987
"2014-07-02 13:35:00 000",378.947,0.895221,10703.2,287.238
"2014-07-02 13:45:00 000",378.597,0.905815,10572.3,293.155
"2014-07-02 13:55:00 000",378.466,0.793975,10517.7,292.371
"2014-07-02 14:05:00 000",377.949,0.965943,10695.8,446.529
"2014-07-02 14:15:00 000",377.496,0.641211,10611.1,286.702
"2014-07-02 14:25:00 000",377.073,0.767833,10776.1,377.461
"2014-07-02 14:35:00 000",376.915,0.742790,10894.1,319.267
"2014-07-02 14:45:00 000",376.706,0.724503,11063.4,534.739
"2014-07-02 14:55:00 000",376.970,0.676749,10668.1,259.042
"2014-07-02 15:05:00 000",377.073,0.630104,10661.1,213.996
"2014-07-02 15:15:00 000",376.743,0.605585,10777.1,214.449
"2014-07-02 15:25:00 000",376.493,0.780547,10847.2,341.126
"2014-07-02 15:35:00 000",376.592,0.772351,10735.7,308.596
"2014-07-02 15:45:00 000",376.895,0.649812,10661.4,271.544
"2014-07-02 15:55:00 000",376.749,0.857475,10819.5,430.685
"2014-07-02 16:05:00 000",376.707,0.610569,10878.1,293.649
"2014-07-02 16:15:00 000",376.606,0.621991,10852.1,192.891
"2014-07-02 16:25:00 000",376.362,0.771670,11168.9,308.709
"2014-07-02 16:35:00 000",376.844,0.761819,11005.2,342.385
"2014-07-02 16:45:00 000",376.901,0.764081,10686.0,246.621
"2014-07-02 16:55:00 000",377.267,1.26629,11102.9,435.733
"2014-07-02 17:05:00 000",378.261,2.73043,11259.0,523.643
"2014-07-02 17:15:00 000",377.746,2.15808,11255.5,329.216
"2014-07-02 17:25:00 000",377.271,2.06588,11379.7,380.699
"2014-07-02 17:35:00 000",376.860,0.616554,11077.6,138.387
"2014-07-02 17:45:00 000",378.642,3.44139,11385.0,407.163
"2014-07-02 17:55:00 000",379.283,3.19153,11664.0,419.321
"2014-07-02 18:05:00 000",378.391,2.41048,11595.3,387.843
"2014-07-02 18:15:00 000",376.861,0.926873,11462.7,254.890
"2014-07-02 18:25:00 000",376.802,0.992192,11482.7,290.342
"2014-07-02 18:35:00 000",378.183,1.36802,11556.0,302.553
"2014-07-02 18:45:00 000",378.343,0.459384,11510.4,185.099
"2014-07-02 18:55:00 000",379.058,0.693483,11733.9,184.360
"2014-07-02 19:05:00 000",379.949,0.533579,12044.5,67.1064
"2014-07-02 19:15:00 000",379.651,0.558473,11813.3,92.5707
"2014-07-02 19:25:00 000",381.324,0.530362,11948.7,69.1043
"2014-07-02 19:35:00 000",382.584,0.565035,12029.9,76.5755
"2014-07-02 19:45:00 000",383.699,0.797880,11963.0,42.4676
"2014-07-02 19:55:00 000",384.850,0.950440,11943.7,108.933
"2014-07-02 20:05:00 000",384.068,1.42845,11677.0,136.274
"2014-07-02 20:15:00 000",385.582,2.74138,11603.8,198.476
"2014-07-02 20:25:00 000",391.017,3.16282,11982.5,259.511
"2014-07-02 20:35:00 000",399.360,1.32872,12530.5,38.6337
"2014-07-02 20:45:00 000",400.536,2.26864,12570.6,154.741
"2014-07-02 20:55:00 000",401.391,3.05019,12411.7,198.154
"2014-07-02 21:05:00 000",407.873,1.52287,12671.6,81.0913
"2014-07-02 21:15:00 000",408.599,1.05794,12636.6,91.2691
"2014-07-02 21:25:00 000",412.364,2.29491,12657.5,110.335
"2014-07-02 21:35:00 000",409.246,2.78500,12249.2,94.8794
"2014-07-02 21:45:00 000",415.413,1.64088,12334.8,77.0867
"2014-07-02 21:55:00 000",418.719,3.54890,12382.2,55.0562
"2014-07-02 22:05:00 000",418.037,1.31453,12378.1,29.3502
"2014-07-02 22:15:00 000",417.633,1.33088,12307.1,114.346
"2014-07-02 22:25:00 000",416.752,2.14384,12387.0,117.616
"2014-07-02 22:35:00 000",421.670,2.18273,11941.9,224.585
"2014-07-02 22:45:00 000",426.235,2.04968,11870.9,173.291
"2014-07-02 22:55:00 000",427.189,2.08016,11991.8,77.9354
"2014-07-02 23:05:00 000",430.281,1.68509,12000.4,92.6754
"2014-07-02 23:15:00 000",428.496,1.79594,12280.3,51.8972
"2014-07-02 23:25:00 000",427.156,1.15732,12392.1,75.8540
"2014-07-02 23:35:00 000",423.815,1.15793,12295.9,68.6654
"2014-07-02 23:45:00 000",426.654,1.07762,12230.0,52.5100
"2014-07-02 23:55:00 000",430.662,0.923968,12311.4,44.3407
"2014-07-03 00:05:00 000",430.784,2.13213,11941.4,258.507
"2014-07-03 00:15:00 000",437.770,1.67349,11718.4,57.2522
"2014-07-03 00:25:00 000",438.166,1.47409,12030.9,103.616
"2014-07-03 00:35:00 000",437.986,1.41357,12054.5,117.725
"2014-07-03 00:45:00 000",441.546,1.08583,11865.2,140.775
"2014-07-03 00:55:00 000",441.145,2.04927,11480.1,107.687
"2014-07-03 01:05:00 000",442.825,2.47024,11358.6,78.9952
"2014-07-03 01:15:00 000",445.981,1.56991,11352.2,115.579
"2014-07-03 01:25:00 000",445.751,2.32964,11213.1,108.455
"2014-07-03 01:35:00 000",446.028,1.29239,11355.8,82.2772
"2014-07-03 01:45:00 000",446.543,0.548437,11508.6,97.4920
"2014-07-03 01:55:00 000",449.495,1.48640,11291.6,79.9573
"2014-07-03 02:05:00 000",452.747,0.851832,11195.4,94.9911
"2014-07-03 02:15:00 000",448.548,2.29573,11350.5,92.5938
"2014-07-03 02:25:00 000",449.506,2.15571,11462.8,75.4291
"2014-07-03 02:35:00 000",450.796,1.84779,11354.9,87.2518
"2014-07-03 02:45:00 000",446.370,0.951775,11373.2,73.0696
"2014-07-03 02:55:00 000",453.716,2.68253,11143.0,54.2797
"2014-07-03 03:05:00 000",456.765,1.20864,11004.9,83.9229
"2014-07-03 03:15:00 000",456.628,1.23058,10973.3,48.8600
"2014-07-03 03:25:00 000",457.586,2.11798,10861.7,121.799
"2014-07-03 03:35:00 000",455.632,2.81832,10869.2,119.811
"2014-07-03 03:45:00 000",457.596,2.83970,10827.6,48.2842
"2014-07-03 03:55:00 000",457.533,1.63201,10700.6,109.381
"2014-07-03 04:05:00 000",460.597,2.00676,10938.0,147.868
"2014-07-03 04:15:00 000",458.369,0.727112,11397.8,58.8291
"2014-07-03 04:25:00 000",458.431,0.794135,11829.7,148.545
"2014-07-03 04:35:00 000",459.742,1.89892,12315.3,128.645
"2014-07-03 04:45:00 000",456.606,2.75103,12768.2,108.588
"2014-07-03 04:55:00 000",447.405,2.64772,13062.9,101.196
"2014-07-03 05:05:00 000",440.460,2.21699,13716.5,225.487
"2014-07-03 05:15:00 000",436.829,1.06754,14380.5,131.750
"2014-07-03 05:25:00 000",442.263,1.75099,14788.1,111.403
"2014-07-03 05:35:00 000",443.487,1.04695,15167.8,111.880
"2014-07-03 05:45:00 000",440.089,2.00660,15575.3,160.581
"2014-07-03 05:55:00 000",438.129,1.42005,15986.4,172.294
"2014-07-03 06:05:00 000",432.501,1.42064,16622.1,197.254
"2014-07-03 06:15:00 000",427.456,3.23827,16809.2,414.386
"2014-07-03 06:25:00 000",425.091,1.72171,13611.8,1378.50
"2014-07-03 06:35:00 000",424.904,2.16446,12951.0,296.733
"2014-07-03 06:45:00 000",416.171,1.35569,13179.2,142.451
"2014-07-03 06:55:00 000",412.606,1.06165,13202.0,232.229
"2014-07-03 07:05:00 000",413.919,1.37111,13519.7,215.423
"2014-07-03 07:15:00 000",412.804,2.44721,13635.3,238.635
"2014-07-03 07:25:00 000",407.069,2.14009,12988.3,375.073
"2014-07-03 07:35:00 000",405.971,2.34684,13149.2,490.674
"2014-07-03 07:45:00 000",398.647,3.46077,12123.3,536.094
"2014-07-03 07:55:00 000",397.213,0.938995,12033.5,224.784
"2014-07-03 08:05:00 000",396.899,2.49400,12357.1,658.271
"2014-07-03 08:15:00 000",391.400,2.41622,11447.9,589.850
"2014-07-03 08:25:00 000",391.052,0.886579,11489.9,238.964
"2014-07-03 08:35:00 000",390.120,0.932550,11742.3,466.938
"2014-07-03 08:45:00 000",387.775,0.973522,12201.0,547.508
"2014-07-03 08:55:00 000",387.845,0.899950,11829.8,364.115
"2014-07-03 09:05:00 000",387.750,0.869304,11645.4,245.473
"2014-07-03 09:15:00 000",387.107,1.09225,11401.7,587.221
"2014-07-03 09:25:00 000",385.428,0.733956,11163.7,606.950
"2014-07-03 09:35:00 000",385.152,0.781082,11181.0,655.351
"2014-07-03 09:45:00 000",385.448,0.762726,10941.2,433.931
"2014-07-03 09:55:00 000",385.398,0.964424,11037.1,553.273
"2014-07-03 10:05:00 000",385.913,0.986427,11190.9,648.918
"2014-07-03 10:15:00 000",385.362,0.587739,11085.4,323.943
"2014-07-03 10:25:00 000",385.584,0.642141,10908.8,340.678
"2014-07-03 10:35:00 000",384.373,0.633036,11633.8,431.745
"2014-07-03 10:45:00 000",384.853,0.955352,11108.1,698.417
"2014-07-03 10:55:00 000",384.494,0.636918,11322.5,450.439
"2014-07-03 11:05:00 000",384.565,0.617945,11204.3,381.097
"2014-07-03 11:15:00 000",385.019,0.730266,10376.5,577.486
"2014-07-03 11:25:00 000",384.301,0.603102,10951.9,518.706
"2014-07-03 11:35:00 000",383.588,0.665407,11030.9,453.853
"2014-07-03 11:45:00 000",382.804,0.620759,11095.9,534.626
"2014-07-03 11:55:00 000",382.828,0.566549,10695.3,347.015
"2014-07-03 12:05:00 000",382.085,0.683438,10973.6,417.426
"2014-07-03 12:15:00 000",381.687,0.665485,11217.8,476.937
"2014-07-03 12:25:00 000",381.625,0.504437,10876.3,383.171
"2014-07-03 12:35:00 000",381.773,0.544011,10577.9,401.440
"2014-07-03 12:45:00 000",381.589,0.530107,10653.9,383.105
"2014-07-03 12:55:00 000",381.293,0.600642,10820.3,389.547
"2014-07-03 13:05:00 000",381.468,0.532084,11011.1,381.871
"2014-07-03 13:15:00 000",380.506,0.630076,11435.7,348.990
"2014-07-03 13:25:00 000",380.655,0.695595,11286.9,440.296
"2014-07-03 13:35:00 000",380.109,0.594915,11495.5,476.881
"2014-07-03 13:45:00 000",380.227,0.540924,11402.7,515.510
"2014-07-03 13:55:00 000",379.963,0.576858,11284.3,523.205
"2014-07-03 14:05:00 000",379.805,0.591293,11185.9,473.902
"2014-07-03 14:15:00 000",379.478,0.507550,11148.3,338.822
"2014-07-03 14:25:00 000",378.981,0.575057,11529.7,410.294
"2014-07-03 14:35:00 000",379.013,0.655580,11623.2,335.534
"2014-07-03 14:45:00 000",378.547,0.641239,11873.9,397.298
"2014-07-03 14:55:00 000",379.451,0.641874,11694.8,446.895
"2014-07-03 15:05:00 000",379.269,0.780459,11846.2,416.943
"2014-07-03 15:15:00 000",379.505,0.976374,11844.7,503.164
"2014-07-03 15:25:00 000",380.062,0.620951,11352.3,377.437
"2014-07-03 15:35:00 000",379.652,0.722914,12120.7,425.858
"2014-07-03 15:45:00 000",379.392,0.585344,12159.9,359.712
"2014-07-03 15:55:00 000",378.841,0.774847,12353.0,358.151
"2014-07-03 16:05:00 000",379.327,0.666478,12308.5,383.512
"2014-07-03 16:15:00 000",379.651,0.784982,12102.0,354.877
"2014-07-03 16:25:00 000",379.195,0.580777,12380.3,308.401
"2014-07-03 16:35:00 000",379.109,0.598678,12544.7,318.554
"2014-07-03 16:45:00 000",379.134,0.679288,12627.9,311.883
"2014-07-03 16:55:00 000",379.556,0.864035,12464.6,338.498
"2014-07-03 17:05:00 000",379.876,1.34887,12563.2,309.601
"2014-07-03 17:15:00 000",380.633,2.01326,12639.8,433.504
"2014-07-03 17:25:00 000",379.999,2.02322,12301.6,371.503
"2014-07-03 17:35:00 000",378.944,0.953193,12278.7,201.080
"2014-07-03 17:45:00 000",379.481,1.47933,12515.6,229.896
"2014-07-03 17:55:00 000",378.975,1.66233,12810.1,229.625
"2014-07-03 18:05:00 000",378.412,1.37229,12954.5,187.147
"2014-07-03 18:15:00 000",378.316,0.732635,12887.1,170.605
"2014-07-03 18:25:00 000",378.602,0.834174,12948.5,159.372
"2014-07-03 18:35:00 000",378.639,0.566301,12925.9,204.013